| time (UTC) | temp F | wind direction | speed MPH | gust MPH | rain 1hr in | rain 24hr in | rain mn in | humidity % | barometer mb |
| 20260508082703 | 51 | 351 | 0.0 | 2.0 | 0.00 | 0.00 | 0.00 | 60 | 1016.2 |
| 20260508082016 | 52 | 67 | 0.0 | 1.0 | 0.00 | 0.00 | 0.00 | 59 | 1016.2 |
| 20260508081119 | 52 | 70 | 0.0 | 1.0 | 0.00 | 0.00 | 0.00 | 57 | 1016.2 |
| 20260508080219 | 53 | 0 | 0.0 | 0.0 | 0.00 | 0.00 | 0.00 | 56 | 1016.3 |
| 20260508075403 | 53 | 53 | 0.0 | 2.0 | 0.00 | 0.00 | 0.00 | 55 | 1016.3 |
| 20260508074503 | 54 | 58 | 0.0 | 2.0 | 0.00 | 0.00 | 0.00 | 54 | 1016.3 |
| 20260508073817 | 54 | 72 | 1.0 | 3.0 | 0.00 | 0.00 | 0.00 | 54 | 1016.3 |
| 20260508072703 | 54 | 68 | 0.0 | 2.0 | 0.00 | 0.00 | 0.00 | 53 | 1016.4 |
| 20260508071803 | 54 | 57 | 1.0 | 4.0 | 0.00 | 0.00 | 0.00 | 53 | 1016.5 |
| 20260508070903 | 54 | 92 | 1.0 | 3.0 | 0.00 | 0.00 | 0.00 | 53 | 1016.5 |
| 20260508070003 | 54 | 73 | 1.0 | 2.0 | 0.00 | 0.00 | 0.00 | 52 | 1016.3 |
| 20260508065403 | 54 | 73 | 1.0 | 2.0 | 0.00 | 0.00 | 0.00 | 52 | 1016.3 |
| 20260508064503 | 54 | 57 | 1.0 | 4.0 | 0.00 | 0.00 | 0.00 | 51 | 1016.3 |
| 20260508063603 | 54 | 66 | 1.0 | 3.0 | 0.00 | 0.00 | 0.00 | 52 | 1016.3 |
| 20260508062916 | 54 | 62 | 1.0 | 4.0 | 0.00 | 0.00 | 0.00 | 52 | 1016.3 |
| 20260508061803 | 54 | 0 | 0.0 | 0.0 | 0.00 | 0.00 | 0.00 | 51 | 1016.2 |
| 20260508060903 | 54 | 64 | 0.0 | 1.0 | 0.00 | 0.00 | 0.00 | 52 | 1016.0 |
| 20260508060003 | 55 | 64 | 0.0 | 1.0 | 0.00 | 0.00 | 0.00 | 51 | 1016.0 |
| 20260508055617 | 55 | 64 | 0.0 | 1.0 | 0.00 | 0.00 | 0.00 | 51 | 1016.1 |
| 20260508054503 | 56 | 47 | 0.0 | 1.0 | 0.00 | 0.00 | 0.00 | 50 | 1016.3 |
| 20260508053603 | 56 | 62 | 1.0 | 2.0 | 0.00 | 0.00 | 0.00 | 48 | 1016.2 |
| 20260508052703 | 56 | 47 | 1.0 | 3.0 | 0.00 | 0.00 | 0.00 | 47 | 1016.1 |
| 20260508051803 | 57 | 58 | 1.0 | 4.0 | 0.00 | 0.00 | 0.00 | 46 | 1016.0 |
| 20260508051118 | 58 | 64 | 1.0 | 3.0 | 0.00 | 0.00 | 0.00 | 45 | 1016.0 |
| 20260508050003 | 59 | 75 | 1.0 | 6.0 | 0.00 | 0.00 | 0.00 | 43 | 1015.9 |
| 20260508045403 | 60 | 67 | 1.0 | 6.0 | 0.00 | 0.00 | 0.00 | 40 | 1015.9 |
| 20260508044503 | 60 | 282 | 1.0 | 7.0 | 0.00 | 0.00 | 0.00 | 35 | 1015.8 |
| 20260508043603 | 59 | 317 | 1.0 | 3.0 | 0.00 | 0.00 | 0.00 | 37 | 1016.0 |
| 20260508042703 | 59 | 298 | 0.0 | 3.0 | 0.00 | 0.00 | 0.00 | 38 | 1016.0 |
| 20260508041803 | 58 | 0 | 0.0 | 0.0 | 0.00 | 0.00 | 0.00 | 40 | 1016.0 |
| 20260508040903 | 58 | 308 | 0.0 | 2.0 | 0.00 | 0.00 | 0.00 | 41 | 1015.8 |
| 20260508040003 | 58 | 0 | 0.0 | 0.0 | 0.00 | 0.00 | 0.00 | 42 | 1015.9 |
| 20260508035403 | 58 | 0 | 0.0 | 0.0 | 0.00 | 0.00 | 0.00 | 43 | 1015.8 |
| 20260508034503 | 58 | 0 | 0.0 | 0.0 | 0.00 | 0.00 | 0.00 | 42 | 1015.7 |
| 20260508033603 | 58 | 0 | 0.0 | 0.0 | 0.00 | 0.00 | 0.00 | 43 | 1015.6 |
| 20260508032703 | 59 | 0 | 0.0 | 0.0 | 0.00 | 0.00 | 0.00 | 43 | 1015.6 |
| 20260508031803 | 59 | 0 | 0.0 | 0.0 | 0.00 | 0.00 | 0.00 | 42 | 1015.3 |
| 20260508030903 | 59 | 0 | 0.0 | 0.0 | 0.00 | 0.00 | 0.00 | 42 | 1015.2 |
| 20260508030003 | 60 | 0 | 0.0 | 0.0 | 0.00 | 0.00 | 0.00 | 42 | 1015.0 |
| 20260508025403 | 60 | 0 | 0.0 | 0.0 | 0.00 | 0.00 | 0.00 | 41 | 1015.1 |
| 20260508024503 | 60 | 0 | 0.0 | 0.0 | 0.00 | 0.00 | 0.00 | 41 | 1014.8 |
| 20260508023819 | 61 | 0 | 0.0 | 0.0 | 0.00 | 0.00 | 0.00 | 40 | 1014.9 |
| 20260508022703 | 62 | 0 | 0.0 | 0.0 | 0.00 | 0.00 | 0.00 | 38 | 1014.7 |
| 20260508021803 | 62 | 167 | 0.0 | 1.0 | 0.00 | 0.00 | 0.00 | 37 | 1014.7 |
| 20260508020903 | 63 | 167 | 0.0 | 1.0 | 0.00 | 0.00 | 0.00 | 37 | 1014.6 |
| 20260508020003 | 63 | 169 | 0.0 | 1.0 | 0.00 | 0.00 | 0.00 | 36 | 1014.5 |
| 20260508015403 | 64 | 154 | 0.0 | 2.0 | 0.00 | 0.00 | 0.00 | 36 | 1014.3 |
| 20260508014503 | 64 | 181 | 0.0 | 1.0 | 0.00 | 0.00 | 0.00 | 35 | 1014.3 |
| 20260508013819 | 65 | 154 | 0.0 | 2.0 | 0.00 | 0.00 | 0.00 | 34 | 1014.3 |
| 20260508012703 | 66 | 171 | 0.0 | 3.0 | 0.00 | 0.00 | 0.00 | 34 | 1014.2 |
| 20260508011803 | 66 | 166 | 0.0 | 3.0 | 0.00 | 0.00 | 0.00 | 31 | 1014.1 |
| 20260508011117 | 67 | 170 | 0.0 | 2.0 | 0.00 | 0.00 | 0.00 | 30 | 1014.0 |
| 20260508010216 | 67 | 187 | 0.0 | 3.0 | 0.00 | 0.00 | 0.00 | 28 | 1013.9 |
| 20260508005403 | 68 | 143 | 0.0 | 1.0 | 0.00 | 0.00 | 0.00 | 30 | 1013.8 |
| 20260508004503 | 68 | 130 | 0.0 | 2.0 | 0.00 | 0.00 | 0.00 | 29 | 1013.8 |
| 20260508003603 | 68 | 113 | 1.0 | 3.0 | 0.00 | 0.00 | 0.00 | 28 | 1013.9 |
| 20260508002703 | 68 | 208 | 0.0 | 3.0 | 0.00 | 0.00 | 0.00 | 29 | 1013.9 |
| 20260508001803 | 68 | 155 | 1.0 | 4.0 | 0.00 | 0.00 | 0.00 | 28 | 1013.8 |
| 20260508000903 | 69 | 119 | 1.0 | 3.0 | 0.00 | 0.00 | 0.00 | 27 | 1013.8 |
| 20260508000003 | 69 | 133 | 0.0 | 3.0 | 0.00 | 0.00 | 0.00 | 27 | 1013.8 |
| 20260507235403 | 70 | 177 | 1.0 | 3.0 | 0.00 | 0.00 | 0.00 | 27 | 1013.9 |
| 20260507234718 | 70 | 233 | 1.0 | 3.0 | 0.00 | 0.00 | 0.00 | 27 | 1013.9 |
| 20260507233603 | 69 | 194 | 1.0 | 5.0 | 0.00 | 0.00 | 0.00 | 28 | 1013.9 |
| 20260507232703 | 69 | 198 | 1.0 | 3.0 | 0.00 | 0.00 | 0.00 | 28 | 1013.9 |
| 20260507231803 | 70 | 183 | 1.0 | 3.0 | 0.00 | 0.00 | 0.00 | 26 | 1014.1 |
| 20260507230903 | 71 | 122 | 1.0 | 3.0 | 0.00 | 0.00 | 0.00 | 26 | 1014.1 |
| 20260507230003 | 71 | 148 | 1.0 | 4.0 | 0.00 | 0.00 | 0.00 | 26 | 1014.1 |
| 20260507225403 | 71 | 187 | 1.0 | 5.0 | 0.00 | 0.00 | 0.00 | 26 | 1014.1 |
| 20260507224503 | 70 | 239 | 1.0 | 5.0 | 0.00 | 0.00 | 0.00 | 30 | 1014.1 |
| 20260507223603 | 70 | 218 | 2.0 | 4.0 | 0.00 | 0.00 | 0.00 | 29 | 1014.2 |
| 20260507222703 | 71 | 225 | 2.0 | 7.0 | 0.00 | 0.00 | 0.00 | 26 | 1014.3 |
| 20260507221803 | 72 | 196 | 1.0 | 6.0 | 0.00 | 0.00 | 0.00 | 25 | 1014.3 |
| 20260507220903 | 71 | 222 | 2.0 | 6.0 | 0.00 | 0.00 | 0.00 | 26 | 1014.2 |
| 20260507220219 | 71 | 233 | 2.0 | 7.0 | 0.00 | 0.00 | 0.00 | 26 | 1014.2 |
| 20260507215403 | 71 | 230 | 2.0 | 5.0 | 0.00 | 0.00 | 0.00 | 27 | 1014.3 |
| 20260507214503 | 70 | 243 | 1.0 | 6.0 | 0.00 | 0.00 | 0.00 | 26 | 1014.5 |
| 20260507213603 | 69 | 280 | 1.0 | 6.0 | 0.00 | 0.00 | 0.00 | 27 | 1014.5 |
| 20260507212916 | 69 | 289 | 2.0 | 7.0 | 0.00 | 0.00 | 0.00 | 26 | 1014.6 |
| 20260507211803 | 69 | 283 | 3.0 | 12.0 | 0.00 | 0.00 | 0.00 | 26 | 1014.6 |
| 20260507210903 | 69 | 279 | 6.0 | 11.0 | 0.00 | 0.00 | 0.00 | 26 | 1014.6 |
| 20260507210003 | 70 | 295 | 4.0 | 11.0 | 0.00 | 0.00 | 0.00 | 26 | 1014.8 |
| 20260507205403 | 70 | 294 | 3.0 | 8.0 | 0.00 | 0.00 | 0.00 | 26 | 1014.9 |
| 20260507204503 | 70 | 295 | 3.0 | 9.0 | 0.00 | 0.00 | 0.00 | 24 | 1015.2 |
| 20260507203603 | 70 | 308 | 3.0 | 9.0 | 0.00 | 0.00 | 0.00 | 25 | 1015.3 |
| 20260507202703 | 70 | 286 | 2.0 | 7.0 | 0.00 | 0.01 | 0.00 | 25 | 1015.4 |
| 20260507201803 | 71 | 258 | 2.0 | 7.0 | 0.00 | 0.01 | 0.00 | 26 | 1015.5 |
| 20260507201119 | 70 | 308 | 2.0 | 9.0 | 0.00 | 0.01 | 0.00 | 24 | 1015.6 |
| 20260507200003 | 71 | 331 | 3.0 | 8.0 | 0.00 | 0.02 | 0.00 | 24 | 1015.8 |
| 20260507195403 | 71 | 142 | 2.0 | 8.0 | 0.00 | 0.03 | 0.00 | 26 | 1015.6 |
| 20260507194503 | 70 | 95 | 3.0 | 6.0 | 0.00 | 0.05 | 0.00 | 24 | 1016.0 |
| 20260507193603 | 70 | 149 | 2.0 | 5.0 | 0.00 | 0.05 | 0.00 | 24 | 1016.1 |
| 20260507192703 | 70 | 191 | 2.0 | 7.0 | 0.00 | 0.05 | 0.00 | 27 | 1016.2 |
| 20260507191803 | 70 | 172 | 2.0 | 6.0 | 0.00 | 0.05 | 0.00 | 25 | 1016.1 |
| 20260507190903 | 69 | 216 | 2.0 | 6.0 | 0.00 | 0.06 | 0.00 | 24 | 1016.2 |
| 20260507190218 | 70 | 207 | 2.0 | 5.0 | 0.00 | 0.07 | 0.00 | 26 | 1016.4 |
| 20260507185403 | 69 | 215 | 2.0 | 6.0 | 0.00 | 0.08 | 0.00 | 26 | 1016.2 |
| 20260507184503 | 69 | 268 | 2.0 | 6.0 | 0.00 | 0.09 | 0.00 | 29 | 1016.3 |
| 20260507183603 | 70 | 182 | 1.0 | 4.0 | 0.00 | 0.11 | 0.00 | 21 | 1016.3 |
| 20260507182703 | 69 | 144 | 2.0 | 6.0 | 0.00 | 0.13 | 0.00 | 22 | 1016.4 |
| 20260507181803 | 68 | 120 | 1.0 | 4.0 | 0.00 | 0.14 | 0.00 | 25 | 1016.6 |
| 20260507180903 | 68 | 80 | 2.0 | 5.0 | 0.00 | 0.15 | 0.00 | 21 | 1017.0 |
| 20260507180217 | 68 | 78 | 2.0 | 6.0 | 0.00 | 0.16 | 0.00 | 24 | 1017.2 |
| 20260507175403 | 67 | 102 | 2.0 | 7.0 | 0.00 | 0.17 | 0.00 | 22 | 1017.3 |
| 20260507174503 | 67 | 105 | 1.0 | 7.0 | 0.00 | 0.17 | 0.00 | 21 | 1017.3 |
| 20260507173603 | 66 | 222 | 1.0 | 3.0 | 0.00 | 0.18 | 0.00 | 26 | 1017.5 |
| 20260507172703 | 65 | 141 | 1.0 | 6.0 | 0.00 | 0.18 | 0.00 | 25 | 1017.7 |
| 20260507171803 | 64 | 258 | 1.0 | 4.0 | 0.00 | 0.18 | 0.00 | 25 | 1017.7 |
| 20260507171118 | 64 | 275 | 2.0 | 4.0 | 0.00 | 0.19 | 0.00 | 25 | 1017.9 |
| 20260507170003 | 64 | 271 | 2.0 | 8.0 | 0.00 | 0.19 | 0.00 | 24 | 1017.8 |
| 20260507165616 | 64 | 217 | 1.0 | 3.0 | 0.00 | 0.19 | 0.00 | 28 | 1017.9 |
| 20260507164503 | 64 | 236 | 0.0 | 3.0 | 0.00 | 0.19 | 0.00 | 24 | 1018.1 |
| 20260507163603 | 62 | 234 | 1.0 | 5.0 | 0.00 | 0.20 | 0.00 | 25 | 1018.1 |
| 20260507162703 | 62 | 259 | 1.0 | 3.0 | 0.00 | 0.21 | 0.00 | 25 | 1018.0 |
| 20260507161803 | 61 | 267 | 1.0 | 4.0 | 0.00 | 0.21 | 0.00 | 26 | 1018.1 |
| 20260507160903 | 61 | 275 | 2.0 | 6.0 | 0.00 | 0.22 | 0.00 | 27 | 1018.0 |
| 20260507160003 | 60 | 287 | 3.0 | 8.0 | 0.00 | 0.23 | 0.00 | 30 | 1018.2 |
| 20260507155616 | 60 | 286 | 3.0 | 8.0 | 0.00 | 0.23 | 0.00 | 27 | 1018.1 |
| 20260507154503 | 59 | 288 | 3.0 | 8.0 | 0.00 | 0.24 | 0.00 | 30 | 1018.2 |
| 20260507153603 | 58 | 282 | 3.0 | 10.0 | 0.00 | 0.25 | 0.00 | 35 | 1018.3 |
| 20260507152703 | 58 | 291 | 2.0 | 4.0 | 0.00 | 0.25 | 0.00 | 34 | 1018.4 |
| 20260507152017 | 57 | 292 | 2.0 | 6.0 | 0.00 | 0.26 | 0.00 | 34 | 1018.4 |
| 20260507151117 | 56 | 278 | 3.0 | 7.0 | 0.00 | 0.26 | 0.00 | 34 | 1018.4 |
| 20260507150003 | 55 | 292 | 2.0 | 8.0 | 0.00 | 0.26 | 0.00 | 34 | 1018.3 |
| 20260507145403 | 54 | 282 | 2.0 | 5.0 | 0.00 | 0.26 | 0.00 | 41 | 1018.4 |
| 20260507144503 | 53 | 293 | 2.0 | 5.0 | 0.00 | 0.27 | 0.00 | 42 | 1018.4 |
| 20260507143603 | 52 | 293 | 2.0 | 6.0 | 0.00 | 0.27 | 0.00 | 43 | 1018.4 |
| 20260507142918 | 51 | 294 | 2.0 | 6.0 | 0.00 | 0.27 | 0.00 | 45 | 1018.2 |
| 20260507141803 | 49 | 302 | 2.0 | 4.0 | 0.00 | 0.27 | 0.00 | 45 | 1018.2 |
| 20260507141116 | 48 | 300 | 2.0 | 4.0 | 0.00 | 0.27 | 0.00 | 48 | 1018.5 |
| 20260507140216 | 47 | 300 | 2.0 | 4.0 | 0.00 | 0.27 | 0.00 | 50 | 1018.5 |
| 20260507135403 | 46 | 301 | 2.0 | 5.0 | 0.00 | 0.27 | 0.00 | 50 | 1018.7 |
| 20260507134503 | 45 | 300 | 2.0 | 5.0 | 0.00 | 0.27 | 0.00 | 50 | 1018.6 |
| 20260507133603 | 44 | 300 | 2.0 | 5.0 | 0.00 | 0.27 | 0.00 | 53 | 1018.4 |
| 20260507132703 | 43 | 302 | 2.0 | 4.0 | 0.00 | 0.27 | 0.00 | 53 | 1018.4 |
| 20260507131803 | 42 | 300 | 2.0 | 4.0 | 0.00 | 0.27 | 0.00 | 55 | 1018.3 |
| 20260507131116 | 41 | 303 | 2.0 | 4.0 | 0.00 | 0.27 | 0.00 | 56 | 1018.4 |
| 20260507130003 | 39 | 301 | 2.0 | 8.0 | 0.00 | 0.27 | 0.00 | 58 | 1018.6 |
| 20260507125403 | 38 | 303 | 2.0 | 8.0 | 0.00 | 0.27 | 0.00 | 61 | 1018.4 |
| 20260507124503 | 36 | 293 | 1.0 | 5.0 | 0.00 | 0.27 | 0.00 | 66 | 1018.2 |
| 20260507123818 | 34 | 294 | 0.0 | 3.0 | 0.00 | 0.27 | 0.00 | 69 | 1018.4 |
| 20260507122703 | 33 | 304 | 0.0 | 2.0 | 0.00 | 0.27 | 0.00 | 72 | 1018.2 |
| 20260507121803 | 33 | 304 | 0.0 | 1.0 | 0.00 | 0.27 | 0.00 | 73 | 1018.3 |
| 20260507120903 | 33 | 0 | 0.0 | 0.0 | 0.00 | 0.27 | 0.00 | 71 | 1018.2 |
| 20260507120003 | 33 | 304 | 0.0 | 2.0 | 0.00 | 0.27 | 0.00 | 72 | 1018.2 |
| 20260507115403 | 33 | 301 | 1.0 | 3.0 | 0.00 | 0.27 | 0.00 | 73 | 1018.2 |
| 20260507114718 | 32 | 303 | 2.0 | 4.0 | 0.00 | 0.27 | 0.00 | 74 | 1018.3 |
| 20260507113603 | 31 | 320 | 2.0 | 4.0 | 0.00 | 0.27 | 0.00 | 78 | 1018.0 |
| 20260507112703 | 31 | 305 | 1.0 | 3.0 | 0.00 | 0.27 | 0.00 | 80 | 1018.2 |
| 20260507111803 | 31 | 304 | 0.0 | 2.0 | 0.00 | 0.27 | 0.00 | 81 | 1018.2 |
| 20260507110903 | 31 | 310 | 0.0 | 2.0 | 0.00 | 0.27 | 0.00 | 80 | 1018.2 |
| 20260507110003 | 32 | 306 | 0.0 | 2.0 | 0.00 | 0.27 | 0.00 | 80 | 1018.2 |
| 20260507105618 | 32 | 297 | 1.0 | 3.0 | 0.00 | 0.27 | 0.00 | 80 | 1018.2 |
| 20260507104503 | 32 | 301 | 1.0 | 3.0 | 0.00 | 0.27 | 0.00 | 81 | 1018.3 |
| 20260507103603 | 31 | 301 | 1.0 | 2.0 | 0.00 | 0.27 | 0.00 | 82 | 1018.5 |
| 20260507102916 | 31 | 301 | 1.0 | 3.0 | 0.00 | 0.27 | 0.00 | 83 | 1018.5 |
| 20260507101803 | 30 | 284 | 0.0 | 2.0 | 0.00 | 0.27 | 0.00 | 87 | 1018.5 |
| 20260507100903 | 30 | 299 | 0.0 | 1.0 | 0.00 | 0.27 | 0.00 | 89 | 1018.6 |
| 20260507100003 | 30 | 322 | 1.0 | 3.0 | 0.00 | 0.27 | 0.00 | 89 | 1018.6 |
| 20260507095403 | 30 | 331 | 1.0 | 3.0 | 0.00 | 0.27 | 0.00 | 90 | 1018.6 |
| 20260507094503 | 30 | 317 | 0.0 | 2.0 | 0.00 | 0.27 | 0.00 | 90 | 1018.8 |
| 20260507093603 | 30 | 0 | 0.0 | 1.0 | 0.00 | 0.27 | 0.00 | 90 | 1018.8 |
| 20260507092703 | 30 | 312 | 0.0 | 1.0 | 0.00 | 0.27 | 0.00 | 90 | 1019.0 |
| 20260507091803 | 30 | 297 | 1.0 | 4.0 | 0.00 | 0.27 | 0.00 | 91 | 1019.0 |
| 20260507090903 | 30 | 307 | 1.0 | 4.0 | 0.00 | 0.27 | 0.00 | 91 | 1019.2 |
| 20260507090003 | 29 | 303 | 1.0 | 3.0 | 0.00 | 0.27 | 0.00 | 91 | 1019.0 |
| 20260507085403 | 29 | 302 | 1.0 | 4.0 | 0.00 | 0.27 | 0.00 | 91 | 1019.1 |
| 20260507084503 | 29 | 299 | 1.0 | 3.0 | 0.00 | 0.27 | 0.00 | 91 | 1019.1 |
| 20260507083603 | 29 | 344 | 0.0 | 1.0 | 0.00 | 0.27 | 0.00 | 91 | 1019.2 |